Regional Weather Roundup
Issued by NWS Charleston, WV

Home | Current Version | Previous Version | Text Only | Print | Product List | Glossary On
Versions: 1 2 3 4 5 6 7 8 9 10 11 12 13 14 15 16 17 18 19 20 21 22 23 24 25 26 27 28 29 30 31 32 33 34 35 36 37 38 39 40 41 42 43 44 45 46 47 48 49 50
000
ASUS41 KRLX 031110
RWRRLX
West Virginia Regional Weather Roundup
National Weather Service Charleston WV
700 AM EDT WED JUN 03 2015

Note: "fair" indicates few or no clouds below 12,000 feet with no
significant weather and/or obstructions to visibility.

WVZ003-031200-
Northern Panhandle of West Virginia

CITY           SKY/WX    TMP DP  RH WIND       PRES   REMARKS
WHEELING       SUNNY     57  52  83 NE12      30.10R
$$

WVZ009-031200-
Northwest West Virginia

CITY           SKY/WX    TMP DP  RH WIND       PRES   REMARKS
PARKERSBURG    MOCLDY    60  56  86 E3        30.09R
$$

WVZ006-031200-
Western West Virginia

CITY           SKY/WX    TMP DP  RH WIND       PRES   REMARKS
HUNTINGTON     CLOUDY    57  56  96 CALM      30.05S FOG
$$

WVZ015-031200-
West Central West Virginia

CITY           SKY/WX    TMP DP  RH WIND       PRES   REMARKS
CHARLESTON     CLOUDY    59  57  93 E3        30.06R FOG
$$

WVZ022-031-031200-
North Central West Virginia

CITY           SKY/WX    TMP DP  RH WIND       PRES   REMARKS
CLARKSBURG     CLOUDY    57  53  86 NE5       30.09R
MORGANTOWN     CLOUDY    59  50  72 E5        30.10S
$$

WVZ025-035-042-045-031200-
Southern West Virginia

CITY           SKY/WX    TMP DP  RH WIND       PRES   REMARKS
BECKLEY        CLOUDY    59  56  89 SE7       30.09R
LOGAN          FOG       57  57 100 CALM      30.02R VSB<1/4
BLUEFIELD      CLOUDY    60  56  86 VRB7      30.08S FOG
LEWISBURG      CLOUDY    59  56  91 NE3       30.10S
$$

WVZ047-031200-
Northern Mountains of West Virginia

CITY           SKY/WX    TMP DP  RH WIND       PRES   REMARKS
ELKINS         CLOUDY    57  54  89 CALM      30.11R
$$

WVZ052-031200-
Eastern Panhandle of West Virginia

CITY           SKY/WX    TMP DP  RH WIND       PRES   REMARKS
MARTINSBURG    CLOUDY    58  55  90 CALM      30.16R
PETERSBURG     CLOUDY    56  55  95 CALM      30.16R FOG
$$


USA.gov is the U.S. government's official web portal to all federal, state and local government web resources and services.